RH
70 68 67 67 66 65 62 61 58 53 45 36 29 24 21 19 19 17 17 18 20 22 25 29 29 25 21 19 19 23 24 22 19 19 28 39 47 52 54 55 55 52 47 39 33 25 16 10 6 5 4 3 3 3 3 3 3 3 3 3 3 4 4 4 5 5 5 5 6 6 6 6 7 7 7 7 7 7 6 6 5 4 4 3 3 2 3 3
52 51 50 49 48 48 48 45 38 28 20 14 12 12 13 14 16 18 20 21 22 23 29 34 32 28 24 20 18 21 27 28 22 18 25 39 50 56 58 58 56 52 46 38 30 21 13 9 5 4 3 3 3 3 3 3 3 3 3 3 4 4 4 5 5 5 5 5 6 7 7 6 7 8 8 7 7 6 5 5 3 3 3 2 2 2 2 2
30 27 26 25 26 27 26 22 15 10 8 8 10 11 13 16 18 20 20 20 20 21 28 34 33 31 29 26 22 23 27 28 25 23 28 39 50 57 59 59 57 53 47 41 32 22 14 9 5 3 3 3 3 3 3 3 3 3 3 4 4 4 5 6 6 6 6 6 6 7 7 7 7 8 8 7 6 5 4 3 3 2 2 2 2 2 2 2
14 12 12 12 12 12 11 9 8 8 7 7 7 8 9 11 12 14 14 15 15 16 24 29 30 31 31 30 28 27 26 24 25 28 30 36 46 54 58 59 57 53 49 42 34 25 17 10 5 4 3 3 3 3 3 3 3 3 4 4 4 5 6 7 7 7 7 8 8 8 8 8 8 8 8 7 6 5 4 3 2 2 2 2 2 2 2 2
9 8 8 7 7 7 7 8 8 7 7 6 6 6 6 6 6 6 7 8 8 11 17 21 24 29 31 31 32 30 28 30 33 34 34 37 43 50 54 55 55 53 49 42 34 26 17 9 5 4 4 4 4 4 3 3 3 3 4 4 5 6 6 7 7 6 7 8 8 9 9 9 9 8 7 6 6 5 4 3 3 3 2 3 3 3 3 2
8 7 7 7 6 6 6 7 7 6 6 6 5 5 4 4 4 4 5 4 6 7 9 11 16 24 28 30 35 36 39 46 45 43 44 42 45 49 51 52 52 53 51 43 32 23 15 8 6 5 4 5 7 6 5 4 3 4 5 5 6 7 7 8 8 7 8 8 8 9 9 9 9 8 7 7 6 6 5 5 4 4 3 3 4 5 5 5
7 6 6 6 5 5 5 5 5 5 5 4 5 5 4 5 5 5 5 5 6 6 6 7 12 21 25 27 36 43 49 59 60 59 60 57 56 56 56 56 56 56 52 41 30 20 13 7 6 5 5 6 7 7 7 7 6 6 7 8 8 8 7 8 8 9 9 10 10 10 9 9 9 8 8 7 7 7 7 7 6 6 5 5 5 6 7 8
6 6 5 5 5 5 5 5 5 5 5 5 6 6 6 6 7 7 7 8 9 10 11 12 16 23 25 28 39 48 57 68 72 73 73 71 68 65 63 60 57 55 48 38 29 18 10 6 4 4 5 5 6 7 7 8 8 9 10 10 10 9 9 8 9 10 10 10 10 10 10 10 10 9 9 9 9 9 9 9 9 8 7 7 7 8 8 9
6 5 5 5 5 5 6 6 7 7 7 7 8 8 9 9 9 11 12 14 16 17 19 20 24 28 32 38 46 53 61 68 71 73 73 71 69 64 61 54 45 39 31 26 22 14 10 9 8 8 6 5 5 6 6 7 7 8 9 9 10 9 9 10 10 11 11 10 11 10 10 11 11 11 11 11 11 10 10 10 10 10 9 9 9 9 9 10
5 5 5 6 6 7 8 8 8 9 9 9 9 9 10 11 12 15 17 20 22 25 26 28 33 38 46 54 60 65 63 61 65 66 64 61 59 54 49 40 28 20 14 11 10 8 9 10 13 16 16 14 10 8 7 6 6 7 8 8 9 9 10 11 11 11 11 11 11 11 11 12 12 11 11 12 11 11 11 11 10 10 10 10 10 10 10 10
7 7 7 8 8 9 10 11 11 12 12 12 12 12 12 13 15 18 20 22 26 32 36 41 44 50 60 67 75 81 72 67 68 63 59 56 52 45 36 26 16 10 8 6 6 7 8 10 12 14 18 19 19 18 14 11 9 8 8 9 10 9 10 12 12 12 12 12 12 11 11 12 11 11 11 11 12 12 11 11 11 11 11 11 10 10 11 11
8 8 10 10 11 12 13 14 15 15 15 14 14 14 14 15 17 21 24 27 32 39 46 52 57 64 73 80 86 86 77 74 73 65 60 57 51 43 33 22 12 9 8 6 8 9 12 12 11 10 10 13 15 17 16 14 12 11 10 11 11 11 11 13 13 13 13 13 12 11 11 12 11 11 11 11 11 12 12 12 12 11 11 12 11 12 12 12
10 12 14 16 17 18 18 17 18 18 17 16 15 15 15 17 20 24 28 31 35 42 50 57 64 71 79 86 88 83 76 72 68 62 56 50 43 34 27 21 15 12 10 8 9 10 12 13 11 10 9 9 10 10 12 12 13 13 13 13 13 12 13 14 14 14 14 13 13 11 11 12 12 11 11 12 11 11 11 11 12 11 11 11 11 12 12 12
16 19 21 23 24 23 23 21 20 20 20 19 18 17 17 18 21 25 29 34 37 44 55 61 66 72 77 81 83 84 81 74 67 62 54 49 42 29 20 17 14 12 11 10 10 9 9 9 9 11 11 11 11 10 11 11 12 13 13 13 14 13 14 14 14 14 14 13 13 12 11 11 12 11 11 12 12 11 11 12 12 12 11 11 11 12 12 12
26 27 27 27 27 27 26 25 23 22 22 21 19 19 20 22 27 32 37 40 41 47 56 65 71 74 76 77 77 79 81 79 76 70 63 56 46 32 20 16 15 15 13 10 8 7 8 9 10 12 13 14 15 15 14 14 14 14 14 14 14 14 13 14 14 13 13 13 13 12 11 11 11 11 11 12 12 11 11 12 13 13 12 11 11 11 11 11
32 32 31 30 29 29 29 27 25 23 22 21 20 22 25 29 33 39 47 51 53 56 60 70 76 77 80 79 72 68 68 70 73 74 69 55 39 30 23 19 18 15 12 9 7 8 8 10 11 12 13 14 14 15 15 14 15 15 14 15 14 14 13 13 14 13 13 13 12 12 11 11 11 11 11 12 11 10 11 13 14 13 12 11 10 10 10 10
37 37 36 34 32 31 31 31 28 23 20 20 22 26 29 33 37 44 53 58 62 64 67 73 78 79 81 78 69 60 52 49 51 56 57 47 35 29 26 25 21 14 10 9 8 9 10 12 13 13 13 12 12 12 12 13 14 14 14 14 14 14 13 13 13 12 12 12 12 12 11 10 10 11 13 13 11 10 11 12 13 12 11 11 10 10 9 10
43 43 42 39 37 34 33 33 30 24 20 20 23 28 33 38 44 51 58 62 65 68 71 75 78 78 77 74 67 52 39 32 29 33 38 39 36 30 26 23 19 14 13 12 12 12 12 12 12 12 12 13 13 13 13 13 13 13 13 13 13 13 13 13 12 12 11 11 11 11 10 10 10 11 14 15 13 12 12 11 11 11 11 10 10 10 10 10
47 47 46 44 41 37 34 33 29 25 21 20 24 28 33 42 50 56 62 65 68 69 71 73 73 74 75 72 62 46 34 30 26 26 27 28 29 27 23 20 18 18 19 18 17 15 14 12 12 13 14 14 14 14 14 14 13 13 12 12 12 12 12 12 11 11 11 11 11 11 10 10 10 12 14 14 13 12 11 11 10 10 10 10 10 10 9 9
49 49 48 47 46 42 37 32 27 24 22 21 24 28 34 44 52 55 56 59 62 62 61 60 58 60 64 63 55 45 39 36 34 33 30 26 26 24 23 21 20 19 19 17 14 13 12 11 12 14 15 15 14 14 13 13 12 12 12 11 11 11 11 11 11 11 11 10 10 10 9 9 10 12 12 12 12 11 10 10 10 10 10 10 10 9 9 9
51 51 50 50 49 45 40 33 25 22 24 24 24 31 39 46 50 49 47 47 50 50 45 39 35 34 37 41 44 44 41 39 39 39 36 33 29 25 22 19 16 13 12 12 10 10 10 10 12 13 14 14 13 12 12 11 11 11 11 11 11 11 11 11 11 10 10 10 10 10 9 9 11 11 11 11 11 10 10 10 10 9 10 10 10 10 11 12
54 53 53 53 51 47 40 32 24 19 23 26 27 34 42 46 46 45 40 36 36 35 31 25 22 18 16 19 27 33 34 34 33 33 31 30 28 24 20 16 13 11 10 10 10 10 10 10 10 11 11 12 12 12 11 11 11 11 11 11 11 11 11 10 10 10 10 10 10 10 9 10 11 11 10 10 10 10 9 10 10 10 11 11 12 13 13 14
56 56 55 54 51 46 38 29 21 16 19 26 29 32 40 44 43 43 40 33 28 25 23 21 20 18 14 13 16 20 22 23 23 22 21 21 22 21 19 17 14 12 11 11 11 10 10 10 11 11 11 11 11 11 11 12 12 12 11 11 11 11 11 11 11 11 11 10 10 10 10 10 11 10 10 10 9 10 10 10 12 13 14 14 14 14 15 15
58 58 57 54 50 45 36 24 17 15 18 27 32 32 36 40 41 41 40 36 32 27 25 24 23 21 19 17 17 17 18 19 20 19 17 16 16 16 15 14 13 12 11 11 11 11 11 11 11 11 11 11 11 11 12 12 12 12 12 12 12 12 12 11 11 11 11 11 11 10 10 10 10 10 9 9 9 10 11 12 15 16 16 15 15 15 15 15
61 60 57 53 47 41 31 19 16 18 21 30 42 43 35 31 33 32 30 28 27 26 27 27 26 24 23 21 20 18 17 16 16 16 15 15 14 14 13 11 11 11 11 10 11 11 11 11 11 11 12 12 12 12 12 12 12 12 12 12 12 12 12 12 12 11 11 10 10 10 10 10 10 10 9 9 11 12 13 14 16 16 16 15 15 15 16 17
62 60 57 50 43 34 24 17 16 19 25 38 55 61 51 35 23 19 20 18 15 16 18 20 23 23 22 19 17 15 14 13 12 12 12 13 13 14 14 13 12 11 11 11 11 12 12 12 13 13 13 13 12 12 12 12 12 12 12 13 12 12 12 11 11 10 10 10 10 11 11 9 11 13 11 10 12 12 13 15 15 16 16 17 18 19 21 23
62 60 54 48 38 27 18 15 15 19 36 56 67 74 72 53 29 17 17 16 12 12 12 12 14 16 15 14 11 9 9 9 10 11 12 12 13 13 13 14 14 14 13 12 12 13 14 14 14 13 13 13 13 13 12 12 12 12 13 12 11 11 11 11 11 11 11 10 10 13 12 11 12 14 13 12 13 13 13 15 16 18 20 23 27 29 32 34
63 58 50 43 31 19 13 14 17 26 49 69 73 74 74 64 45 30 22 18 15 13 11 10 11 11 11 10 9 7 7 8 9 10 11 11 12 12 13 13 14 14 14 14 14 15 14 14 14 14 13 13 13 13 13 13 12 12 11 11 11 11 11 11 11 11 11 10 11 14 13 13 13 13 13 14 13 13 14 16 19 24 29 34 38 41 44 46
61 53 44 34 23 14 11 16 29 47 62 68 67 65 61 54 46 35 26 19 17 15 12 11 11 10 10 9 7 7 7 8 9 10 10 11 12 12 12 13 13 13 14 13 14 14 14 14 14 14 13 13 13 12 12 12 11 11 11 12 12 12 12 12 12 12 12 11 12 13 14 14 15 14 14 14 15 16 19 22 26 32 38 45 49 52 55 54
56 46 35 24 16 12 15 29 48 65 70 62 54 49 42 38 35 29 23 18 17 15 11 9 8 8 8 7 7 7 8 10 10 10 11 11 12 12 12 13 13 13 14 13 14 14 14 14 13 13 13 12 12 12 12 12 12 13 13 13 13 13 13 13 13 13 13 13 13 14 14 14 17 19 17 17 19 21 25 30 34 39 45 51 55 57 56 53
48 36 24 15 12 14 28 52 69 76 74 62 49 40 36 37 37 29 20 15 14 11 8 7 6 6 6 6 7 8 9 11 11 11 12 12 12 13 13 13 14 14 14 14 14 13 13 13 12 12 12 12 13 13 14 14 14 14 14 14 14 14 14 14 14 14 14 14 13 13 14 16 21 26 26 28 30 31 33 37 39 43 47 51 54 52 48 42
37 24 16 11 11 16 36 66 83 85 83 76 66 58 54 54 49 37 25 17 12 8 7 6 6 6 6 7 7 9 10 11 12 12 12 13 13 13 14 14 14 14 13 13 12 12 11 11 12 13 14 15 15 16 16 16 15 15 15 15 15 15 14 13 13 13 13 13 13 16 18 22 28 32 37 45 47 44 42 42 43 45 46 46 43 37 33 32
25 15 11 10 13 24 50 76 86 85 85 83 77 71 68 64 54 42 33 23 15 11 7 6 6 6 6 7 9 10 11 12 13 13 13 13 13 13 13 13 13 12 11 11 11 11 12 13 15 15 16 17 16 17 17 16 16 15 16 16 16 15 13 12 12 13 14 15 17 21 25 31 39 44 48 52 51 49 48 45 42 39 35 32 30 32 38 48
15 10 10 12 17 35 64 81 82 80 79 75 70 65 63 59 51 43 33 23 15 10 7 6 7 7 7 9 11 11 12 13 13 13 13 13 12 12 11 11 11 11 11 11 12 12 13 14 16 16 17 18 17 18 17 17 17 16 16 16 15 16 15 14 14 14 16 17 20 28 34 37 42 46 47 48 47 44 40 35 31 30 31 36 44 56 68 78
11 13 17 20 25 42 66 78 78 74 67 61 57 53 49 46 42 36 26 17 11 7 7 8 8 10 11 11 12 12 12 12 12 12 11 11 11 10 10 10 11 11 12 13 14 14 14 15 16 17 19 19 20 20 19 18 18 16 16 16 16 17 17 18 19 21 22 21 23 32 37 37 38 38 37 37 36 34 33 35 41 49 57 67 78 86 91 95
13 21 28 34 43 56 66 69 66 59 53 49 45 39 35 32 29 23 16 11 9 8 10 11 11 13 13 12 13 12 12 12 11 11 10 10 10 10 11 12 13 14 15 15 16 16 15 16 18 19 21 22 22 20 19 19 18 17 18 18 18 20 21 23 24 27 28 25 27 34 37 35 30 26 28 33 39 47 54 62 72 80 87 93 97 97 96 97
25 34 41 48 54 59 57 54 52 47 42 37 30 24 21 19 15 12 9 9 9 10 12 12 13 13 12 12 12 11 11 11 10 10 10 10 11 12 13 14 15 16 16 16 18 18 16 17 19 22 23 23 21 20 19 19 18 19 21 22 24 24 26 26 27 30 31 29 28 28 30 31 31 37 48 59 70 79 84 89 94 97 98 99 100 100 101 102
41 43 46 50 50 49 47 45 41 32 24 17 12 10 10 10 9 9 10 11 11 12 12 12 12 11 11 11 11 10 11 11 10 11 11 12 13 14 15 16 16 17 18 18 20 21 18 17 20 23 23 22 20 19 19 19 19 22 24 25 27 28 30 32 32 31 27 23 23 27 41 56 65 75 81 85 91 95 96 98 100 100 102 102 102 99 93 85
45 41 44 46 45 42 36 29 21 12 7 6 6 7 8 9 10 11 12 12 12 12 12 12 11 11 11 11 11 11 11 11 12 13 14 15 15 16 16 17 18 18 19 20 22 24 22 20 20 22 22 20 20 19 20 20 21 23 24 27 28 29 29 27 25 25 25 32 44 57 77 88 87 89 92 92 96 97 98 101 102 102 98 90 79 66 53 43
43 43 44 41 35 26 16 10 7 6 6 7 8 9 10 11 12 12 12 12 12 12 11 11 11 11 11 11 11 12 13 14 15 15 17 17 17 18 18 19 21 22 23 24 24 25 24 21 20 21 21 21 21 22 21 22 23 24 25 25 23 21 21 23 31 43 53 66 77 87 97 95 88 93 99 98 99 100 101 100 91 79 63 48 37 29 23 20
49 45 35 26 18 10 6 6 7 8 9 9 10 12 12 12 12 12 12 12 12 12 12 12 12 11 12 12 13 14 15 17 18 18 19 19 20 21 21 23 24 25 25 26 25 24 22 20 19 20 22 24 24 24 23 23 23 21 18 18 20 26 37 48 60 72 79 87 93 97 102 98 93 98 102 101 102 97 86 70 52 37 27 21 19 18 18 19
42 30 18 12 8 6 7 8 9 11 11 11 12 12 12 12 12 12 12 12 12 12 12 12 12 13 13 14 16 16 17 19 20 21 22 23 24 24 25 26 26 26 25 23 22 21 19 19 20 22 24 24 24 23 21 18 16 17 22 31 42 52 61 70 77 83 89 97 100 100 101 99 98 101 101 94 81 62 44 31 22 18 17 18 21 24 27 31
22 13 9 8 7 7 10 11 12 11 11 11 12 12 13 13 12 12 12 12 12 12 13 13 14 15 16 17 18 19 20 22 23 25 26 27 27 26 26 25 23 23 21 20 20 21 21 20 21 22 22 20 17 15 14 18 25 34 44 53 61 66 73 83 90 93 97 101 102 101 102 100 96 88 73 54 37 24 19 18 17 20 24 29 32 35 36 35
9 7 7 8 9 10 11 11 11 11 11 12 12 12 12 11 11 11 11 12 13 15 16 17 18 20 21 22 23 25 26 27 28 28 26 25 24 22 21 20 19 19 19 20 22 22 22 20 17 15 14 13 15 20 27 38 46 50 53 59 69 79 88 95 98 99 101 102 101 98 90 75 60 48 34 23 18 17 20 24 28 33 35 37 36 33 28 22
7 8 9 9 10 10 11 11 11 12 12 11 11 10 11 11 12 13 13 15 17 19 21 22 23 25 27 29 30 30 28 26 24 21 19 18 18 18 18 19 20 21 21 21 20 19 17 14 12 12 16 22 32 39 42 43 47 52 60 72 83 92 99 101 101 101 100 94 80 66 54 39 27 21 19 17 19 23 31 40 42 36 30 28 26 21 15 10
9 10 10 10 10 10 11 11 10 10 10 9 11 11 13 14 16 17 19 21 23 25 26 28 30 31 31 29 27 23 20 18 15 15 15 16 18 19 19 20 20 18 17 15 13 13 14 17 23 30 38 43 45 46 44 45 55 70 81 89 94 98 101 100 96 87 76 63 45 32 28 27 22 19 19 23 32 39 43 43 36 25 18 16 13 10 8 7
10 11 10 10 10 9 9 9 9 10 10 11 14 16 18 20 21 24 26 27 28 30 32 32 29 26 23 20 18 15 14 13 12 14 15 16 17 16 15 14 13 12 12 12 15 20 28 37 43 46 47 44 42 49 57 65 78 90 95 97 97 96 90 80 69 56 45 38 29 22 22 23 23 26 33 42 47 44 35 26 19 14 11 9 8 8 9 9
10 10 10 9 9 8 9 10 10 12 14 17 20 22 24 25 27 29 29 30 32 33 30 24 19 17 17 17 16 14 13 12 12 13 13 12 12 11 11 12 12 14 17 22 30 36 41 43 40 40 46 49 54 67 76 83 91 95 95 93 86 76 64 51 42 36 30 27 24 23 25 29 36 45 48 45 36 26 18 13 11 10 9 9 10 9 10 10
9 9 9 8 9 10 12 13 15 18 22 24 26 27 28 29 29 30 31 34 33 26 18 15 16 19 20 18 16 14 13 12 12 11 10 10 10 12 15 18 21 26 32 36 39 38 35 33 33 43 61 71 73 80 84 87 91 89 83 75 63 51 43 37 34 31 27 25 27 33 41 47 50 48 38 25 16 12 11 11 10 11 10 10 11 11 12 13
9 10 10 11 12 14 17 19 22 25 28 28 28 29 29 29 30 33 35 32 23 15 14 16 20 22 20 17 14 12 11 10 10 11 11 13 15 19 24 28 32 35 35 32 30 29 32 41 49 62 79 83 80 81 82 80 78 73 63 53 43 36 34 33 31 29 29 35 44 51 53 49 39 27 17 12 11 11 11 12 12 12 12 12 13 14 14 13
11 13 14 15 18 21 24 26 28 29 29 29 28 29 30 32 34 34 28 19 12 13 18 20 21 21 17 13 11 9 10 11 13 16 18 20 24 27 30 30 29 28 27 28 33 40 52 64 70 77 84 84 79 76 72 67 63 54 44 37 34 32 31 31 34 40 48 55 56 50 40 30 21 14 12 12 12 12 12 13 14 13 14 15 15 15 15 16
15 18 20 22 26 28 29 29 29 28 28 29 29 31 33 33 30 23 14 10 12 16 20 20 19 16 11 10 10 11 13 16 19 23 25 27 28 27 26 24 25 30 38 47 55 63 71 76 76 78 80 78 73 66 60 55 49 40 34 32 32 31 35 42 52 58 57 49 39 30 23 18 14 13 12 12 12 13 14 15 16 16 16 17 17 18 19 19
Wind_Speed
15 15 15 16 16 17 16 16 17 17 18 18 18 18 18 17 16 16 15 15 15 15 15 15 16 17 18 19 19 20 20 20 20 21 20 20 19 18 18 17 17 17 17 17 17 16 16 15 15 15 15 16 17 17 17 18 18 19 18 18 19 19 18 18 18 19 20 21 20 20 22 21 21 21 23 25 25 26 28 30 31 30 30 31 31 30 30 30
15 16 16 16 17 17 16 16 16 16 15 15 15 15 15 14 14 14 14 14 15 15 15 15 15 15 16 16 17 17 18 18 19 19 18 18 18 17 17 16 16 16 16 16 15 15 15 15 16 16 16 16 17 17 17 17 18 19 18 18 19 18 18 19 19 20 21 21 20 20 22 23 22 21 23 25 27 28 29 30 31 31 31 30 29 29 30 30
14 14 14 14 14 14 14 14 13 13 13 13 14 14 14 14 13 14 15 15 16 16 16 16 16 16 16 16 15 15 16 17 17 17 17 18 17 17 17 17 16 16 16 16 15 15 15 16 16 16 16 16 16 17 17 18 18 18 18 19 19 18 19 19 20 21 22 22 21 20 21 23 23 23 24 26 27 29 30 29 29 30 31 30 28 29 29 30
12 12 11 11 12 12 12 12 12 12 12 13 14 15 15 15 15 16 17 17 18 17 17 17 17 17 17 17 16 15 15 16 16 16 17 17 18 18 18 18 18 17 17 17 16 16 16 16 16 16 16 16 17 17 17 18 18 17 18 19 18 18 19 19 20 22 22 23 23 21 21 23 24 24 26 27 28 29 29 28 29 29 29 29 29 29 30 30
11 11 11 11 11 11 11 11 11 12 12 13 14 15 16 16 17 17 18 18 18 18 18 18 18 18 18 18 17 16 15 15 16 15 16 17 17 18 18 18 18 18 18 18 17 16 16 16 16 17 17 16 17 17 17 18 19 17 18 19 18 19 19 19 21 23 22 22 23 22 22 23 24 26 27 29 29 28 28 28 28 29 29 29 29 29 30 31
10 10 10 10 10 10 10 10 11 11 12 12 13 14 15 16 16 17 17 18 18 18 19 19 18 18 18 18 17 16 15 15 16 16 16 16 17 17 18 18 18 19 19 18 18 17 16 16 17 17 17 17 17 18 18 19 19 18 18 18 19 20 20 19 21 22 22 22 22 22 23 24 24 26 28 29 29 29 29 28 29 29 29 29 29 29 29 30
9 9 9 9 9 9 9 9 10 10 11 12 13 14 14 15 16 16 17 17 18 18 19 19 19 19 19 19 17 16 16 15 15 16 16 16 17 17 18 19 19 20 19 19 18 17 17 16 16 16 17 17 18 19 19 20 20 19 19 19 20 21 20 20 21 21 22 22 22 22 24 25 25 25 28 29 29 29 29 30 30 31 30 30 30 30 31 31
8 7 7 7 7 7 7 8 9 10 11 12 13 14 14 15 16 17 17 18 18 18 19 19 20 20 20 19 18 17 17 16 16 16 16 17 18 18 19 19 20 20 19 19 18 17 16 16 16 16 16 17 18 19 20 21 20 20 21 20 20 21 20 20 21 21 22 22 22 23 24 25 25 26 28 29 29 30 30 30 31 32 32 32 32 32 33 33
5 5 5 5 5 6 7 8 9 10 11 12 13 14 15 15 16 17 18 18 19 19 19 19 20 20 20 19 19 18 18 17 17 17 17 17 18 19 19 19 19 19 18 18 17 17 17 16 16 16 17 17 19 20 21 21 21 20 21 21 20 21 21 21 21 21 22 23 23 24 25 25 26 27 28 29 30 32 32 31 32 32 33 34 34 34 35 35
3 3 4 4 5 6 7 8 9 10 11 12 13 14 15 16 17 17 18 19 19 19 19 19 20 20 20 19 19 19 19 19 18 18 18 18 18 19 19 19 19 18 17 17 17 16 16 17 17 18 18 18 19 20 21 21 21 21 21 21 21 20 20 21 22 22 23 24 24 25 25 25 27 27 28 29 29 32 33 33 34 34 35 35 35 36 36 37
3 4 4 5 6 7 8 8 9 10 12 13 14 15 16 17 17 18 18 18 19 19 19 19 19 19 19 19 19 19 20 20 19 19 19 18 19 19 19 19 18 18 17 17 17 16 17 17 18 18 19 19 20 21 22 22 22 21 21 21 21 21 20 21 23 23 24 25 25 26 25 26 28 28 29 29 29 31 33 34 35 35 36 37 38 38 38 38
4 4 4 5 6 7 8 9 10 11 12 14 15 16 17 18 19 18 18 18 19 19 19 18 18 18 18 18 18 18 19 19 19 19 18 18 18 18 19 19 18 18 17 17 18 17 18 18 18 19 19 20 21 22 22 22 22 22 22 21 22 22 21 21 24 24 25 26 27 27 26 25 29 30 30 31 31 32 34 35 35 36 37 38 38 39 38 38
3 4 5 5 7 8 9 10 11 12 14 15 16 17 18 19 20 20 20 19 19 19 19 18 18 18 18 17 18 18 19 19 19 18 18 18 18 18 18 18 18 18 18 18 18 18 19 19 19 20 20 20 20 21 21 22 22 23 23 23 23 23 21 22 24 25 26 28 28 29 28 25 28 32 32 32 33 34 35 36 36 36 38 39 39 38 38 38
3 4 5 6 7 9 10 11 12 14 15 16 17 18 19 20 20 20 20 20 20 19 19 19 18 19 19 18 19 19 19 19 19 18 18 18 17 17 17 17 18 18 18 18 18 19 19 19 20 20 20 20 20 21 21 22 22 23 24 24 24 24 23 23 25 26 28 29 29 31 31 27 27 32 34 34 34 36 37 37 37 37 38 39 38 38 38 38
3 5 6 7 9 10 11 13 14 15 16 17 18 19 19 19 19 20 20 20 20 19 19 19 19 19 19 19 18 19 19 20 20 19 19 18 17 17 16 17 17 18 18 18 19 19 19 19 19 20 20 20 21 21 22 22 23 25 25 25 26 26 26 25 26 28 30 30 30 32 33 30 28 31 34 35 36 38 38 37 37 38 39 39 39 38 38 38
5 7 8 9 11 12 13 14 15 16 17 18 18 19 19 19 19 20 20 19 19 19 20 19 19 19 18 18 18 18 18 18 18 19 18 18 17 16 16 17 18 18 18 18 19 19 19 19 19 20 20 21 22 23 23 23 24 26 26 27 27 27 28 28 28 30 31 32 32 33 34 32 31 32 34 37 39 39 39 39 38 38 39 39 39 40 40 40
7 8 10 11 12 13 14 15 16 16 17 17 18 18 18 18 19 20 20 19 19 19 20 19 19 19 18 17 17 16 15 15 16 16 16 16 16 17 17 18 18 18 18 19 19 19 19 19 20 20 21 22 23 24 24 24 25 26 27 27 27 28 29 30 31 31 32 33 33 34 34 33 34 34 35 38 41 41 41 41 40 38 39 39 40 41 41 42
9 10 11 13 14 15 15 16 16 17 17 17 17 18 18 17 18 19 18 19 18 18 18 18 18 18 17 17 16 14 13 13 14 15 15 15 16 17 17 17 18 18 18 19 19 20 21 21 21 21 22 23 24 25 25 25 25 26 28 28 28 29 29 31 33 33 34 34 35 36 35 35 36 35 35 38 40 41 42 42 41 40 40 40 41 41 42 43
11 12 13 14 15 16 16 17 17 17 17 17 17 17 17 16 17 17 16 16 16 16 15 14 15 14 14 14 13 13 13 12 13 15 15 15 16 16 17 17 18 18 19 20 21 21 22 21 22 22 23 24 24 25 26 26 27 28 29 30 30 30 30 32 34 35 36 37 37 37 38 38 37 36 37 39 40 40 41 42 42 41 41 42 42 42 43 44
13 13 14 15 16 16 17 18 18 18 18 17 17 17 16 15 14 14 14 14 13 13 12 11 11 11 11 12 12 12 13 13 15 16 15 16 16 17 18 18 19 20 20 21 22 22 23 22 23 24 25 26 26 26 27 28 28 28 30 31 31 32 31 32 34 35 36 38 38 38 39 39 38 38 39 40 40 40 40 41 42 42 42 43 42 42 43 45
14 14 15 16 16 17 17 18 18 18 18 17 17 16 15 14 13 12 13 13 11 10 10 9 10 10 10 11 12 12 13 14 15 16 15 16 17 18 19 19 20 21 22 22 22 22 23 22 23 25 26 27 28 28 28 29 30 30 31 31 32 33 33 34 35 35 36 37 38 39 40 40 39 39 40 40 41 41 42 42 42 42 43 43 43 44 45 46
15 15 16 16 17 17 18 18 18 18 18 17 16 15 14 13 12 11 11 12 12 10 9 10 11 11 11 11 12 12 13 13 15 16 16 17 18 19 20 20 20 21 21 22 22 22 23 23 24 26 27 28 29 29 29 30 30 31 32 33 32 33 34 35 36 36 37 38 38 39 40 39 39 39 40 41 42 43 43 43 42 43 43 44 45 46 47 48
16 16 17 17 17 18 18 19 18 17 17 16 15 14 13 13 12 11 10 10 12 11 11 11 12 12 12 12 12 13 14 14 16 17 17 18 19 19 20 21 21 20 20 21 22 22 22 23 24 26 27 28 28 29 29 30 30 31 33 33 33 34 35 36 37 37 38 39 39 40 40 40 40 40 40 42 43 43 44 44 43 43 44 45 46 47 48 49
17 17 17 18 18 19 19 19 18 17 16 15 14 13 13 12 11 11 10 10 12 13 12 13 13 13 13 13 13 14 15 15 16 17 18 18 18 19 20 20 20 21 21 22 22 22 22 23 25 26 27 27 28 28 29 30 30 31 33 33 34 34 35 36 37 37 38 38 39 40 41 41 42 42 42 44 44 45 45 45 44 44 44 46 47 48 48 49
17 17 18 19 19 20 20 19 17 16 15 14 13 12 12 12 12 11 10 11 13 13 13 14 13 13 13 13 13 14 15 16 16 17 17 17 17 18 19 19 19 20 21 22 22 21 22 23 24 25 26 26 27 28 29 30 31 32 32 34 34 35 35 36 37 37 38 39 40 41 42 43 44 44 45 46 47 46 46 46 45 45 46 46 47 47 48 48
17 18 19 19 20 20 19 18 17 16 14 13 12 12 12 12 12 11 11 11 13 14 13 13 13 13 13 13 14 15 16 16 16 16 17 17 17 17 17 18 18 18 19 20 20 20 21 22 23 24 25 26 27 28 29 30 31 32 32 34 35 35 36 37 37 38 39 40 41 42 43 45 45 46 47 47 47 47 47 46 45 45 46 46 46 47 47 48
18 19 20 20 21 21 18 17 16 14 13 12 12 12 13 13 13 12 12 12 12 13 13 13 13 13 14 15 15 16 16 17 17 17 17 17 17 17 17 17 17 18 19 20 20 20 21 22 23 24 25 26 27 28 30 30 31 32 33 34 35 35 36 37 38 39 41 41 42 43 46 46 46 47 47 46 46 47 46 46 45 45 45 45 45 45 46 47
18 20 21 21 21 19 17 15 13 12 11 11 12 12 12 13 13 13 13 13 12 12 13 13 14 14 14 15 15 16 17 17 17 17 17 17 17 17 17 17 17 18 19 20 20 20 21 22 23 25 26 27 28 29 29 30 31 32 33 34 35 36 37 39 40 41 42 43 43 45 47 47 47 47 47 46 46 46 45 44 44 44 44 44 44 45 46 47
19 21 22 22 20 17 15 13 11 10 10 10 11 11 12 12 13 13 14 14 13 13 14 15 15 14 14 15 16 17 18 17 17 17 17 17 17 18 18 18 18 19 20 20 21 21 22 23 24 25 26 27 28 29 30 31 32 33 34 35 37 38 39 41 42 43 44 44 45 46 47 47 47 46 46 46 46 44 43 43 43 43 43 44 44 45 46 47
21 22 22 21 19 16 13 10 9 9 9 10 10 11 11 12 13 14 14 14 14 14 16 16 15 14 14 15 17 17 18 18 18 18 18 18 18 18 18 18 19 20 20 21 22 22 22 23 24 25 26 27 28 29 30 32 33 34 36 37 39 40 41 43 44 44 45 45 45 46 46 46 45 44 45 45 44 43 42 43 43 43 44 45 45 46 47 47
22 22 21 20 17 13 10 8 8 8 9 9 10 10 11 12 13 14 14 14 14 15 15 15 16 15 14 15 17 18 18 18 18 18 18 18 19 19 20 20 20 20 21 22 23 23 23 24 25 26 26 27 28 30 32 33 35 36 38 39 40 42 43 43 44 45 45 45 45 46 46 46 44 43 43 42 41 42 42 43 43 44 45 46 46 47 47 48
22 21 19 17 14 10 8 7 8 9 9 9 9 10 10 12 13 14 15 15 15 15 15 15 16 16 15 16 17 18 18 18 18 19 19 19 20 20 21 21 22 22 22 23 23 24 24 25 26 26 27 28 30 32 34 36 37 39 40 41 42 43 44 44 45 45 45 45 46 45 45 43 41 41 40 39 39 40 42 43 44 44 45 47 47 48 49 50
21 19 17 14 11 8 6 7 8 9 9 9 10 10 11 12 13 14 15 16 16 15 15 15 15 16 16 17 17 18 18 19 19 20 20 20 21 21 22 22 23 23 24 24 24 24 24 25 27 28 29 31 33 35 37 38 40 41 41 42 43 44 45 46 46 46 46 45 45 43 42 40 39 38 38 38 39 40 41 43 44 45 47 48 49 50 50 51
18 16 14 11 8 7 6 7 8 9 10 11 11 12 13 14 14 15 16 17 17 17 16 15 16 16 17 17 18 18 19 19 20 21 21 21 22 22 23 23 23 24 25 25 25 26 26 27 29 31 32 34 35 37 38 40 41 42 42 43 44 44 45 46 46 46 46 45 44 42 40 39 38 39 39 40 41 41 42 44 45 46 48 49 50 51 52 53
14 12 10 8 7 7 7 8 10 10 11 13 13 14 14 15 15 15 16 16 16 16 16 16 16 17 18 18 19 20 20 21 22 22 22 22 23 23 24 24 24 25 26 27 27 28 29 31 32 34 35 37 38 39 40 41 42 43 43 44 44 44 44 44 44 44 44 44 43 40 39 39 40 41 42 42 43 43 44 45 46 48 49 51 52 53 53 54
10 9 8 7 7 7 8 10 11 12 12 13 14 14 14 14 14 14 15 15 15 15 16 17 17 18 18 19 20 21 22 22 22 23 23 23 24 25 25 25 26 26 27 28 30 31 32 33 35 37 38 39 40 41 41 42 42 43 43 43 43 43 43 43 42 42 42 42 41 39 39 39 41 43 43 43 44 45 47 48 49 50 51 52 53 53 54 55
7 6 6 7 7 8 9 10 11 11 12 13 13 13 13 13 13 14 14 15 16 16 16 17 17 18 19 20 21 22 23 23 24 25 25 25 25 26 27 27 28 28 29 31 32 34 35 36 37 38 39 40 41 41 41 42 42 42 41 41 42 42 42 41 41 40 40 40 39 39 38 39 41 43 44 45 47 49 50 51 51 52 52 52 52 52 53 53
5 5 6 7 7 8 9 10 10 11 12 12 13 13 13 13 14 15 15 16 17 17 18 18 19 20 21 21 22 23 24 25 26 26 26 27 27 27 28 29 30 31 32 34 35 38 39 39 38 38 39 40 41 41 41 41 41 40 40 40 39 39 39 39 39 39 40 40 40 39 39 40 42 44 46 48 50 51 52 52 52 51 51 51 51 51 52 54
5 6 6 7 7 8 9 10 11 12 12 12 12 13 13 14 15 15 16 17 18 19 19 20 21 22 23 24 24 25 26 26 27 27 27 28 29 29 30 31 32 34 35 37 38 40 41 41 40 39 40 41 41 41 41 40 40 39 38 38 37 37 37 37 37 38 39 40 40 41 42 43 45 47 48 50 51 52 52 51 50 50 50 51 51 53 55 57
5 6 6 7 8 9 10 10 11 11 11 12 12 13 14 15 15 16 17 18 19 21 21 22 23 24 25 26 26 26 26 26 27 28 29 30 31 32 33 34 35 37 38 39 40 41 42 42 41 40 40 40 40 40 40 39 38 37 37 36 36 36 35 36 36 37 38 40 42 43 45 47 48 49 50 50 50 50 50 49 49 50 51 52 53 55 57 59
5 6 7 8 9 10 10 10 11 11 12 12 13 14 15 16 17 18 19 20 21 23 24 24 25 26 26 27 27 27 27 28 28 30 31 32 34 35 36 37 38 40 41 41 42 42 42 42 41 39 38 38 37 37 37 37 37 37 37 36 35 35 36 37 38 39 40 41 43 44 46 48 49 49 49 49 49 49 49 50 51 51 53 54 56 58 60 63
6 7 8 9 9 10 10 11 11 11 12 13 15 16 17 18 19 20 21 23 23 24 25 26 26 27 27 27 28 29 30 31 32 33 34 36 37 38 39 40 40 41 41 42 41 41 41 40 38 36 35 35 35 35 35 36 36 36 36 36 36 37 38 39 41 42 42 42 43 43 44 46 46 46 47 47 47 48 50 51 52 53 55 57 59 62 64 66
7 8 8 9 9 10 10 11 12 13 14 15 16 17 18 20 21 22 23 24 24 25 25 26 27 28 29 30 31 32 33 34 35 36 37 38 39 40 41 41 41 41 41 40 39 38 38 37 36 34 33 33 34 34 35 35 35 36 36 36 37 38 39 41 42 43 44 43 42 42 42 43 43 44 45 45 46 48 49 51 53 55 57 59 62 64 66 68
8 8 9 9 10 10 11 12 13 15 16 17 18 19 20 21 22 22 23 24 24 25 27 28 29 30 32 33 34 36 36 37 38 39 40 40 40 40 40 40 39 38 37 36 35 34 35 35 35 35 33 32 32 33 34 35 36 37 39 39 39 39 40 41 41 42 43 42 41 41 41 41 42 43 43 43 45 47 49 52 54 56 58 60 63 65 68 71
8 8 9 10 11 12 13 14 15 17 18 19 20 20 21 21 22 23 24 25 26 28 29 31 32 33 35 36 37 39 40 40 40 40 39 38 37 37 36 35 34 33 33 33 32 32 32 32 34 34 34 33 34 35 37 38 39 39 40 40 40 40 40 40 41 41 40 39 39 39 40 40 41 42 42 43 46 48 50 52 54 57 59 62 65 67 70 73
8 9 10 11 12 13 15 16 17 18 18 19 19 20 20 22 23 25 27 28 29 31 32 34 36 37 39 40 40 39 38 37 36 35 34 33 33 32 31 31 31 31 31 31 31 30 30 31 32 32 33 35 36 38 39 41 41 41 40 40 39 39 38 38 39 39 38 38 37 38 40 41 42 43 45 47 49 51 53 54 56 59 62 65 68 71 74 76
8 10 11 13 14 16 16 17 17 17 18 19 19 21 23 24 26 27 29 30 32 34 36 39 40 40 39 37 35 33 32 31 31 30 30 30 30 30 30 30 30 30 30 30 29 30 30 30 31 32 34 37 38 39 40 40 40 40 39 38 37 37 37 37 38 38 38 38 38 39 42 44 46 48 50 52 54 55 57 59 61 64 67 69 72 74 77 79
10 12 13 14 15 16 16 16 17 18 19 21 22 23 25 26 28 29 31 33 35 38 40 41 39 36 33 31 29 29 28 29 29 29 29 29 29 29 29 29 28 28 29 29 29 31 32 32 33 34 35 38 39 40 40 39 38 37 37 36 36 37 37 37 37 38 38 39 41 43 45 48 50 51 52 55 57 59 60 63 65 68 70 72 74 77 79 81
13 13 14 14 15 15 16 18 19 20 22 23 24 25 26 28 30 31 33 36 39 40 39 36 32 30 28 28 28 28 28 28 28 28 28 28 28 27 27 27 27 28 29 31 32 33 34 35 36 35 36 38 39 39 39 38 36 35 36 36 37 37 38 38 39 40 40 42 44 46 48 50 51 51 52 54 58 60 63 65 68 70 72 74 76 79 81 83
13 13 14 15 16 17 19 20 21 22 23 24 25 26 28 30 32 34 37 39 39 36 33 30 28 28 28 28 29 29 28 28 28 27 27 26 26 27 27 28 29 30 31 33 34 35 36 36 37 36 36 37 38 38 38 37 36 35 35 36 37 38 39 40 41 42 42 44 46 47 48 49 50 51 52 54 58 62 65 68 70 72 75 77 79 81 83 86
13 14 16 18 19 20 21 22 23 24 25 26 27 29 30 33 35 37 39 37 34 30 29 28 28 29 29 29 29 28 27 27 27 27 27 27 27 29 30 30 31 32 34 35 35 36 36 37 37 36 36 37 38 38 38 38 37 36 35 36 38 39 40 42 43 44 46 47 47 48 49 50 51 52 54 56 60 65 68 71 74 77 78 80 81 83 85 87
16 17 19 20 21 22 23 24 24 25 26 27 29 31 33 36 37 37 35 31 29 28 28 28 29 29 29 28 27 27 26 26 27 28 29 29 30 31 32 33 34 34 35 36 36 36 36 36 37 36 36 36 37 38 39 39 38 36 36 37 39 40 41 43 45 46 47 47 49 50 52 54 56 57 59 60 63 67 72 75 78 79 80 80 82 84 85 86
Wind_Direction
261 263 265 267 270 272 274 277 280 283 286 288 290 290 290 290 290 289 288 288 290 290 290 289 290 290 288 284 279 276 275 274 272 271 270 271 272 275 277 279 281 283 284 285 285 285 283 281 278 275 273 271 270 268 266 264 262 262 265 268 268 271 276 279 279 280 282 284 287 287 286 286 285 286 286 287 288 288 288 289 291 294 292 290 289 288 285 282
265 267 268 270 272 274 276 278 281 284 287 290 292 292 292 292 291 290 290 292 294 295 294 294 294 295 297 294 286 280 277 276 274 270 268 268 270 272 275 277 279 280 281 282 282 281 278 277 274 273 271 270 270 269 267 265 264 265 268 270 271 276 280 281 282 282 283 285 288 287 287 287 287 288 288 289 290 290 291 293 295 295 292 291 291 289 286 285
268 270 271 273 274 275 276 279 282 286 290 293 293 293 293 292 290 289 290 293 296 296 294 294 296 297 300 300 295 288 283 280 277 272 269 268 269 271 273 276 278 280 282 283 283 280 277 275 273 272 271 271 270 269 268 267 267 269 270 271 275 279 281 282 284 285 286 288 288 288 288 288 289 290 290 290 291 292 294 296 296 294 293 293 291 289 288 286
269 272 273 275 276 277 278 281 285 289 292 293 293 293 293 293 292 291 291 292 294 293 292 293 295 297 298 299 298 293 288 283 279 275 270 268 267 268 270 273 276 279 282 284 283 281 277 274 272 271 271 272 271 270 268 267 268 269 270 273 278 280 281 284 284 285 289 290 290 290 290 290 291 292 292 291 291 293 296 297 296 295 294 293 293 291 290 288
270 272 273 274 275 277 280 283 286 289 291 291 293 294 295 295 294 294 293 293 293 292 292 293 295 296 296 297 296 294 291 286 283 279 273 269 267 267 269 271 274 276 278 280 279 277 274 271 270 270 271 270 270 271 268 266 268 269 271 274 277 278 281 283 284 287 290 290 291 291 290 291 292 293 292 292 294 295 296 297 296 295 294 294 293 292 291 290
273 273 274 275 277 280 283 285 288 290 292 294 297 298 299 299 298 298 296 295 295 293 293 293 294 294 293 293 292 292 289 285 284 281 276 273 271 270 271 272 273 274 275 275 274 272 270 268 268 268 269 270 270 270 268 268 270 270 271 274 275 278 281 282 283 287 289 289 290 290 290 290 291 292 292 293 295 296 297 297 296 294 294 292 291 291 290 289
277 278 279 280 283 286 290 293 295 298 301 304 304 304 304 304 304 303 301 300 298 296 295 294 293 291 289 288 287 286 285 282 280 279 276 275 273 272 272 272 273 273 274 273 272 270 268 266 266 267 268 269 269 268 268 269 270 271 272 274 276 279 281 281 282 285 286 287 288 288 289 290 292 292 292 293 295 296 297 297 296 295 295 293 292 292 292 291
281 283 285 288 294 299 303 305 309 312 313 312 310 310 309 308 308 307 306 304 302 300 298 295 293 290 287 286 283 281 280 278 275 273 272 272 272 272 271 272 272 273 272 272 271 269 267 266 265 266 267 268 268 267 267 268 268 269 271 272 275 278 280 280 281 282 283 284 285 286 287 289 291 292 292 294 295 296 296 297 296 296 296 295 295 294 294 293
286 291 297 304 311 314 317 318 320 320 318 316 313 312 310 310 309 308 307 305 303 300 297 295 292 289 286 284 282 279 278 275 272 270 268 268 269 270 270 270 270 271 271 270 269 267 267 266 266 266 267 268 269 269 268 267 268 268 269 271 272 275 277 278 280 280 281 283 284 285 287 289 291 292 293 295 296 296 296 297 296 296 296 295 295 295 294 294
308 313 320 323 325 325 325 325 324 322 320 318 315 313 311 310 309 307 306 304 302 299 296 295 292 291 288 285 283 281 278 274 272 269 268 267 267 268 269 269 268 268 268 269 268 266 266 267 267 267 266 267 268 269 269 269 269 269 270 272 272 273 276 278 280 280 282 283 284 285 287 291 292 293 294 296 296 296 297 297 296 297 297 297 297 296 295 296
335 335 335 334 333 331 330 328 326 324 322 320 317 315 312 310 307 305 303 302 301 299 297 296 295 294 292 289 287 284 281 278 275 272 269 268 268 267 267 267 267 266 265 265 266 267 268 269 269 268 268 267 266 267 268 270 271 271 271 273 274 274 276 278 279 281 282 284 285 285 288 292 293 294 295 295 295 295 296 296 296 298 299 298 298 297 297 297
342 341 341 340 338 335 333 330 328 325 323 321 319 317 315 312 310 307 305 304 303 299 297 296 296 295 293 291 289 285 282 278 275 272 271 270 268 266 264 264 264 264 263 263 264 267 269 270 270 271 270 269 267 266 267 268 270 271 272 272 273 275 277 278 280 282 283 284 285 285 288 294 295 296 296 296 295 294 294 294 295 297 297 296 296 296 296 296
344 345 347 345 342 337 334 331 329 327 325 323 321 319 317 315 313 310 308 306 305 301 298 297 295 294 291 289 287 284 281 276 272 269 268 268 267 265 263 261 261 262 262 262 264 266 268 269 270 271 271 270 270 269 269 269 269 271 272 273 274 277 279 279 281 283 285 285 286 287 289 294 296 295 296 296 295 294 293 294 295 295 294 294 295 296 297 297
344 345 344 342 339 336 334 332 330 328 326 324 321 319 316 313 311 309 307 304 302 300 297 296 295 293 290 287 284 281 278 275 272 270 268 268 267 265 263 262 262 262 263 264 266 267 268 268 269 270 271 271 272 272 272 272 273 274 274 276 277 278 278 279 281 283 284 284 286 287 287 291 294 294 295 296 295 294 294 295 296 295 294 294 295 296 296 296
343 340 339 338 337 335 334 332 329 327 325 322 319 315 312 310 309 308 306 302 299 297 294 293 293 292 290 288 285 282 279 277 275 273 272 271 268 265 263 262 262 263 265 267 267 267 266 267 268 270 271 272 273 274 275 275 276 276 277 278 279 279 279 279 280 281 281 282 284 285 285 289 293 294 295 296 295 294 294 296 296 296 295 295 296 295 294 294
336 335 335 336 335 334 332 330 327 324 322 318 314 312 311 310 310 309 306 303 300 297 293 291 290 291 291 289 287 285 283 281 279 277 274 271 268 265 263 263 264 266 267 268 268 267 267 267 269 272 274 275 275 275 275 276 276 277 279 280 281 282 281 281 282 281 281 282 283 283 285 289 294 296 298 297 295 295 296 297 297 297 296 295 295 294 293 293
329 330 332 333 333 331 329 326 323 320 317 315 313 312 312 312 312 311 308 304 300 297 294 291 289 289 290 288 287 285 284 285 285 283 278 273 270 267 266 267 268 270 271 270 269 269 269 270 272 275 277 278 278 278 277 278 278 279 279 280 282 282 283 285 284 283 283 283 284 284 285 289 294 299 301 298 297 298 298 298 298 298 296 295 295 294 293 293
326 329 330 331 330 327 324 321 318 317 317 316 315 313 314 315 314 313 310 306 302 298 296 293 290 291 290 286 284 282 283 287 290 289 284 279 274 272 270 271 272 273 274 274 273 272 272 273 274 276 278 280 281 281 282 284 284 284 284 284 285 286 288 291 290 289 289 288 288 290 290 291 295 299 300 297 297 298 298 298 298 298 297 297 296 295 294 294
327 330 330 329 327 323 320 318 317 317 317 317 317 316 316 317 316 315 312 309 306 303 300 296 295 297 294 287 282 280 282 288 292 291 288 283 279 275 274 274 274 276 277 276 275 275 274 275 276 278 279 281 283 285 286 287 287 288 288 288 289 289 292 294 293 293 294 293 294 295 294 294 297 299 297 297 297 298 297 297 297 298 298 298 296 295 294 293
328 329 327 325 323 321 319 318 317 317 317 317 318 317 318 319 319 318 316 313 310 308 306 305 304 305 301 293 287 284 286 291 293 291 287 284 282 279 278 278 279 280 279 277 277 277 276 277 279 279 279 281 283 285 285 285 285 287 288 289 291 293 294 294 293 293 293 293 295 296 295 296 298 298 297 298 298 297 297 297 297 299 298 296 296 295 294 292
327 326 324 323 321 319 318 317 316 316 316 316 317 318 319 320 320 321 318 316 313 310 308 310 309 308 305 300 295 291 292 294 292 290 289 287 285 283 283 283 284 284 282 280 279 278 278 279 278 278 278 280 282 284 285 286 288 290 292 293 295 297 296 295 294 294 294 294 296 296 295 297 299 298 298 299 298 298 298 298 298 298 296 295 295 295 294 293
325 323 322 321 320 319 318 316 315 314 313 313 314 317 318 318 319 319 318 315 314 313 310 311 310 309 308 307 305 303 302 301 298 296 295 291 287 286 286 286 286 285 285 283 281 280 280 280 279 278 279 281 284 287 288 290 293 295 296 297 299 299 297 296 296 297 297 297 297 297 297 298 298 298 298 298 297 298 298 298 298 297 295 295 295 294 293 293
324 322 321 320 320 319 317 314 312 310 309 309 310 313 315 317 319 318 317 312 308 310 311 312 312 310 309 309 309 309 308 307 303 301 298 293 290 287 286 287 287 287 286 284 283 282 282 282 281 280 281 283 285 288 291 293 296 297 297 299 300 299 298 298 298 298 298 298 298 297 297 298 297 297 297 296 297 297 297 298 298 297 296 296 295 294 293 293
323 321 320 320 319 318 315 311 309 308 307 305 306 308 312 316 319 318 317 311 305 305 307 309 310 309 309 310 309 308 309 307 303 301 299 295 292 289 287 287 287 288 287 285 284 284 284 283 282 283 284 286 288 291 293 295 297 298 298 299 299 298 298 298 298 298 298 298 298 298 298 298 298 298 297 297 298 298 299 299 298 297 297 295 294 293 293 292
321 320 319 319 317 315 312 309 308 306 305 305 303 304 309 313 316 315 316 316 310 308 305 306 309 310 309 310 309 310 309 307 304 303 301 300 297 295 293 291 289 289 288 287 287 287 287 286 286 288 289 291 293 294 295 296 297 298 298 297 297 297 297 297 297 297 297 297 298 299 299 299 299 299 298 299 300 300 300 299 298 298 296 295 295 294 294 293
320 318 318 317 315 313 310 308 306 305 305 306 303 302 305 308 309 309 312 316 315 312 309 307 309 310 311 311 312 312 311 309 307 307 306 305 304 302 301 297 295 293 291 291 291 290 290 290 291 292 293 294 295 296 297 297 297 297 296 296 296 296 296 297 297 297 297 298 300 300 298 298 299 299 299 300 300 300 299 298 298 297 297 297 296 296 295 295
319 316 315 314 313 311 309 305 303 304 307 309 307 306 305 304 304 304 307 313 315 314 312 310 310 310 311 313 313 314 314 313 311 310 310 308 307 306 305 303 301 298 296 296 296 294 294 294 294 294 294 295 295 296 297 297 297 296 296 296 295 296 296 296 297 297 298 299 300 299 298 298 298 298 299 299 298 298 297 298 298 298 299 299 298 298 298 298
317 315 313 312 311 310 307 303 303 305 308 309 311 310 307 306 305 304 305 308 312 314 313 311 309 308 309 310 313 315 316 315 312 310 310 308 307 306 305 305 303 300 299 299 298 297 297 296 295 295 295 295 295 295 295 295 295 295 295 295 295 296 296 296 297 297 298 299 299 298 298 299 297 297 298 298 297 297 298 299 300 300 301 300 300 299 298 298
316 314 313 311 310 308 305 305 306 307 309 309 311 311 310 310 308 307 307 307 309 313 313 312 310 308 309 309 313 315 316 315 312 311 309 307 306 305 304 303 302 301 301 300 299 297 296 295 295 296 296 296 296 295 295 295 295 295 296 296 296 297 297 297 298 298 298 299 299 298 298 297 297 297 298 298 299 301 302 301 301 301 301 300 299 298 297 297
315 314 312 309 309 306 303 305 307 308 311 311 311 311 311 312 312 313 311 308 309 312 313 314 312 310 309 310 312 314 313 313 312 310 309 307 306 304 303 302 302 301 300 300 299 298 298 297 297 297 297 296 296 295 295 296 296 296 296 297 297 298 298 298 298 299 299 299 298 297 297 297 299 301 301 301 303 304 303 302 301 300 299 298 297 296 295 296
314 312 309 308 307 303 302 308 310 312 315 315 315 314 314 316 317 317 315 311 310 311 312 314 314 312 310 309 310 311 310 309 309 309 308 307 306 304 303 303 302 300 299 299 300 300 300 299 298 298 297 297 297 297 297 297 297 298 298 298 298 298 298 298 298 298 298 298 298 298 298 300 303 305 305 305 305 303 302 300 299 298 297 296 295 295 295 296
312 310 308 306 304 299 302 312 315 315 317 320 322 321 320 320 319 320 318 316 314 314 314 313 312 311 311 309 309 309 308 308 308 307 307 306 305 304 303 302 302 301 300 300 300 301 301 301 300 300 299 299 299 299 299 299 299 299 299 299 298 298 298 298 298 298 298 299 299 300 302 303 305 306 306 305 303 301 299 298 297 296 295 294 295 296 297 298
309 307 306 304 299 298 306 316 317 316 316 319 321 321 320 318 318 319 319 318 317 316 315 313 311 309 309 309 309 308 308 308 308 307 307 305 304 303 302 302 302 301 301 301 300 300 300 300 300 300 300 300 299 299 299 299 299 299 299 299 299 299 299 299 299 299 300 300 301 302 303 304 304 303 302 300 298 298 297 296 295 295 294 295 297 298 299 299
306 306 305 301 297 299 307 315 317 316 316 315 314 314 313 312 313 314 315 317 317 317 316 314 312 310 310 310 309 309 309 309 308 307 307 306 304 303 302 302 302 301 301 301 300 300 299 299 300 300 300 300 300 300 300 300 300 300 300 300 300 300 300 300 300 300 300 301 302 303 303 303 302 301 299 298 297 297 297 296 296 296 297 298 299 300 300 301
305 306 307 305 303 301 304 310 313 314 313 312 311 310 309 309 310 311 312 313 314 315 315 314 313 312 312 312 311 310 310 310 308 307 307 306 305 304 304 303 303 302 302 301 301 301 301 302 302 302 302 303 302 301 301 302 302 301 301 301 300 300 300 300 300 300 300 301 302 303 303 303 302 300 299 299 300 299 298 298 298 299 300 301 302 302 302 302
304 309 313 312 309 306 305 308 310 313 314 312 311 310 309 310 311 310 310 310 312 314 314 314 314 312 312 312 310 309 309 308 308 307 307 307 305 304 304 304 303 303 302 302 302 302 302 303 304 304 305 304 303 303 303 303 302 302 302 301 301 301 300 301 301 301 301 302 304 304 304 303 302 301 301 301 300 299 299 300 301 302 303 304 304 303 303 303
306 318 323 319 317 313 311 312 314 315 315 313 312 311 311 312 312 312 312 313 313 314 313 312 312 311 311 311 310 309 309 309 308 307 307 306 305 304 304 303 303 303 303 303 303 303 302 303 305 305 305 304 303 302 302 302 302 302 301 301 301 302 302 302 303 303 303 304 304 303 303 303 302 301 301 300 301 301 302 303 304 305 305 305 305 304 303 303
315 326 328 323 321 319 318 318 317 315 314 312 312 312 313 316 316 316 316 316 315 314 314 313 313 312 311 311 310 310 310 309 308 307 306 305 304 304 304 303 303 303 303 304 304 304 303 304 305 305 304 303 302 302 302 302 302 302 301 302 302 302 303 304 305 305 304 304 304 303 304 303 302 302 302 302 303 304 305 306 307 307 307 306 305 305 304 303
323 328 328 324 323 322 319 317 316 314 313 313 314 315 317 319 319 318 317 316 315 315 315 314 314 313 312 311 311 310 309 308 308 307 306 305 304 304 304 304 304 303 303 304 304 305 304 304 305 305 304 303 303 303 303 303 303 302 302 303 303 304 305 305 305 305 305 305 305 305 305 304 303 303 303 304 305 305 306 307 308 308 307 307 307 306 306 305
326 328 327 324 322 319 316 315 316 316 315 316 317 318 318 318 318 318 317 316 315 315 315 314 313 312 311 310 309 309 308 308 308 307 306 305 304 304 304 303 303 303 303 304 304 304 304 304 305 305 304 304 303 304 304 304 304 304 304 305 305 306 306 306 306 306 306 307 307 307 307 305 305 306 306 306 306 307 308 309 309 309 309 309 309 308 307 305
326 325 323 321 318 316 315 317 319 320 319 319 319 318 318 318 318 318 317 316 315 314 314 313 312 311 310 309 309 308 308 308 307 306 305 304 304 304 303 303 303 303 303 304 304 304 304 304 305 305 304 304 304 305 305 305 306 306 306 307 308 309 309 309 309 308 308 308 308 308 307 306 307 307 307 307 308 309 311 311 312 312 311 311 310 308 307 306
322 321 319 318 315 316 319 321 322 321 320 319 318 319 319 319 318 317 316 315 314 314 313 312 311 310 310 309 308 307 307 307 307 306 305 304 303 303 303 302 303 303 303 304 304 304 304 304 305 305 305 305 306 307 306 306 306 307 308 310 312 312 312 310 309 308 308 308 308 308 306 305 306 307 308 309 311 313 313 313 313 312 312 311 310 309 308 308
319 318 317 316 316 319 322 322 321 320 319 318 318 318 318 317 316 315 315 314 314 314 313 312 311 310 309 308 307 307 306 306 306 305 304 304 303 303 302 303 303 303 304 304 305 305 305 306 306 307 307 308 308 307 307 307 309 309 311 313 313 312 310 309 308 308 308 308 308 307 306 306 307 308 310 313 315 314 313 312 312 311 311 310 309 308 307 306
319 317 316 316 317 319 320 320 318 317 317 317 317 316 316 316 316 316 315 315 315 314 313 311 310 309 308 307 307 306 306 306 305 305 304 303 303 303 303 304 305 305 306 307 308 308 309 309 309 309 310 309 308 308 308 309 310 311 312 312 312 311 310 309 308 308 308 309 309 308 309 310 311 312 313 313 313 311 311 311 311 310 308 307 305 305 305 306
318 316 315 314 316 318 319 318 317 316 316 316 317 318 318 318 318 317 316 315 314 312 311 310 309 308 308 308 307 307 307 306 306 306 305 305 306 306 307 308 308 309 310 310 311 311 311 311 311 312 312 312 311 311 310 310 311 312 312 313 312 312 311 310 309 308 309 310 310 310 310 310 310 311 311 310 308 307 307 307 306 305 305 304 305 306 307 308
315 314 312 313 315 316 316 315 315 316 317 319 320 320 320 319 318 316 315 314 313 312 311 310 310 309 309 309 309 309 309 309 309 309 310 310 311 311 312 313 313 313 312 312 313 313 313 312 312 313 313 312 312 312 311 311 312 313 313 313 313 313 311 309 309 309 310 310 311 309 308 306 305 306 306 305 305 305 304 304 304 305 305 307 308 309 310 311
310 310 309 311 313 314 315 315 317 320 321 322 322 321 319 318 317 316 315 314 313 313 312 312 311 311 311 312 312 313 313 314 314 315 315 315 315 315 316 315 315 314 314 314 314 314 313 313 312 313 313 311 311 311 311 312 313 314 314 314 314 313 311 310 310 310 310 309 308 307 306 305 305 306 307 307 307 308 308 309 309 309 310 311 312 312 313 313
310 310 310 312 314 317 319 320 321 323 322 321 320 319 318 317 316 316 315 314 314 314 315 315 315 316 317 317 317 317 318 318 317 317 317 317 317 317 317 317 316 316 315 315 314 313 312 312 312 313 313 311 311 311 312 313 314 315 315 315 314 313 311 311 310 310 309 309 308 308 308 308 309 310 311 311 312 312 312 312 312 312 313 314 314 313 314 315
314 315 316 318 320 322 322 321 321 321 320 319 318 317 317 316 315 315 314 315 316 317 318 319 321 322 322 321 321 320 320 319 319 318 318 318 318 318 318 317 317 316 315 314 313 311 311 312 312 314 313 311 311 312 313 314 315 315 315 315 314 312 311 310 310 310 310 310 310 310 310 310 311 312 313 314 314 314 313 313 313 313 313 314 314 315 316 316
320 320 320 321 322 322 321 319 319 319 318 317 316 316 315 315 314 314 315 316 318 319 321 324 325 325 323 322 322 321 321 321 321 321 321 320 319 318 318 317 316 315 314 313 312 312 313 313 314 315 314 312 312 313 313 314 315 316 317 315 313 311 310 310 310 310 310 310 310 310 309 310 312 313 314 314 314 313 313 313 313 313 314 315 316 317 317 317
323 321 319 320 320 320 319 318 318 317 317 316 315 314 314 314 314 315 316 318 320 321 323 324 324 324 323 323 323 323 324 324 324 323 322 320 319 319 318 317 316 316 315 314 314 314 315 315 315 315 315 314 314 314 314 315 317 318 317 314 312 311 311 311 311 311 311 311 311 311 311 312 313 314 314 315 315 315 315 315 315 316 318 318 318 318 318 318
320 318 317 318 319 319 318 318 317 316 315 314 313 313 313 314 315 316 318 320 322 322 323 323 323 323 323 324 325 325 325 324 323 322 321 320 319 318 317 317 318 318 317 315 315 315 316 315 315 316 316 316 316 316 316 317 317 317 315 313 312 312 312 312 312 313 313 314 314 314 315 316 317 316 316 317 317 317 318 318 319 319 319 319 320 320 320 319